This demonstration page uses our WeatherBlox Daily Observations layout. Learn more.

Left ArrowRight Arrow

36.17497, -115.13722

Hourly Observations for August 4, 2016

Temp ( °F °C ) Dew Point ( °F °C ) Humidity (%) Winds ( mph kmh ) Pressure ( in mb ) Visibility ( mi km ) Precip ( " mm )
12:53 am 00:53 Clear 79 26.1 60 15.6 52 52 S 10 17 29.95 1014 10 16.0934 0 0
1:53 am 01:53 Cloudy 79 26.1 63 17.2 58 58 SW 9 15 29.93 1013 10 16.0934 0 0
2:53 am 02:53 Clear 79 26.1 62 16.7 56 56 S 9 15 29.93 1014 10 16.0934 0 0
3:53 am 03:53 Mostly Cloudy 79 26.1 62 16.7 56 56 SSE 7 11 29.93 1014 10 16.0934 0 0
4:53 am 04:53 Mostly Clear 74 23.3 64 17.8 71 71 ESE 9 15 29.94 1014 10 16.0934 0 0
5:53 am 05:53 Mostly Cloudy with Light Rain 73 22.8 64 17.8 74 74 S 6 9 29.92 1013 10 16.0934 0 0.0254
6:53 am 06:53 Cloudy with Light Rain 72 22.2 68 20 87 87 E 16 26 29.93 1013 10 16.0934 0 0.0254
7:53 am 07:53 Sunny 75 23.9 67 19.4 76 76 ENE 13 20 29.95 1014 10 16.0934 0 0.0254
8:53 am 08:53 Sunny 76 24.4 66 18.9 72 72 E 6 9 29.96 1015 10 16.0934 0 0
9:53 am 09:53 Partly Cloudy 77 25 65 18.3 66 66 SE 5 7 29.97 1015 10 16.0934 0 0
10:53 am 10:53 Mostly Cloudy 78 25.6 64 17.8 62 62 ESE 7 11 29.97 1015 10 16.0934 0 0
11:53 am 11:53 Cloudy with Light Rain 76 24.4 66 18.9 72 72 SSE 7 11 29.97 1015 10 16.0934 0 0.0254
12:53 pm 12:53 Mostly Cloudy 78 25.6 65 18.3 64 64 SSE 5 7 29.96 1015 10 16.0934 0 0.0254
1:53 pm 13:53 Mostly Cloudy 79 26.1 65 18.3 62 62 SSE 6 9 29.93 1014 10 16.0934 0 0
2:53 pm 14:53 Mostly Cloudy 81 27.2 65 18.3 58 58 ESE 3 6 29.9 1013 10 16.0934 0 0
3:53 pm 15:53 Mostly Cloudy 81 27.2 65 18.3 58 58 ESE 5 7 29.87 1012 10 16.0934 0 0.0254
4:53 pm 16:53 Partly Cloudy 82 27.8 64 17.8 55 55 E 7 11 29.85 1011 10 16.0934 0 0
5:53 pm 17:53 Sunny 84 28.9 61 16.1 46 46 ENE 6 9 29.84 1010 10 16.0934 0 0
6:53 pm 18:53 Mostly Cloudy 84 28.9 61 16.1 46 46 ENE 3 6 29.84 1010 10 16.0934 0 0
7:53 pm 19:53 Clear 84 28.9 58 14.4 41 41 Calm 29.84 1011 10 16.0934 0 0
8:53 pm 20:53 Mostly Cloudy 84 28.9 60 15.6 44 44 Calm 29.85 1011 10 16.0934 0 0
9:53 pm 21:53 Cloudy 84 28.9 60 15.6 44 44 NNE 3 6 29.87 1011 10 16.0934 0 0
10:53 pm 22:53 Mostly Cloudy 84 28.9 61 16.1 46 46 NNW 3 6 29.85 1011 10 16.0934 0 0
11:53 pm 23:53 Clear 82 27.8 62 16.7 51 51 SE 7 11 29.86 1011 10 16.0934 0 0

Powered by AerisWeather